Overview Statistics Trail Chart Weather Telemetry Raw packets
 

This is the latest recevied weather packets stored in our database for station/object W7BTL. If no packets are shown the sender has not sent any weather packets the latest 10 day(s).

<< 1 2 3 4 5 6 >>
Time Temp. Humidity Pressure Rain* Wind** Luminosity Snow
1788649656 33.89° C 20% 1011.1 hPa 0 mm - 305 W/m² -
1788649354 33.89° C 19% 1011.1 hPa 0 mm - 273 W/m² -
1788649076 33.89° C 20% 1011.2 hPa 0 mm - 343 W/m² -
1788648749 33.89° C 20% 1011.1 hPa 0 mm - 297 W/m² -
1788648448 34.44° C 19% 1011.2 hPa 0 mm - 253 W/m² -
1788648144 35° C 19% 1011.3 hPa 0 mm - 293 W/m² -
1788647840 35° C 20% 1011.3 hPa 0 mm - 341 W/m² -
1788647536 35° C 20% 1011.6 hPa 0 mm - 657 W/m² -
1788647232 35° C 20% 1011.3 hPa 0 mm - 454 W/m² -
1788646946 35.56° C 20% 1011.3 hPa 0 mm - 331 W/m² -
1788646627 35.56° C 20% 1011.5 hPa 0 mm - 513 W/m² -
1788646324 35.56° C 20% 1011.7 hPa 0 mm - 803 W/m² -
1788646019 35° C 20% 1011.8 hPa 0 mm - 896 W/m² -
1788645715 34.44° C 21% 1011.6 hPa 0 mm - 981 W/m² -
1788645414 33.89° C 21% 1011.8 hPa 0 mm - 685 W/m² -
1788645110 33.89° C 22% 1011.9 hPa 0 mm - 285 W/m² -
1788644806 33.33° C 24% 1011.8 hPa 0 mm - 1102 W/m² -
1788644501 34.44° C 21% 1012.1 hPa 0 mm - 263 W/m² -
1788644196 35° C 24% 1012.1 hPa 0 mm - 573 W/m² -
1788643891 35° C 20% 1011.9 hPa 0 mm - 385 W/m² -
1788643587 35° C 21% 1012.2 hPa 0 mm - 583 W/m² -
1788643286 35.56° C 20% 1011.9 hPa 0 mm - 902 W/m² -
1788642981 35° C 21% 1012 hPa 0 mm - 913 W/m² -
1788642677 35° C 22% 1012.3 hPa 0 mm - 941 W/m² -
1788642373 35° C 22% 1012.2 hPa 0 mm - 925 W/m² -

* Rain latest hour (hover to see other rain measurements)
** Current wind speed in m/s (hover to see current wind gust speed)